When you browse on this site, cookies collect data to enhance your experience and personalize the content and advertising you see.
Visit our Privacy Policy to learn more. By continuing to use the site, you agree to this use of cookies and data.
  • In Romania
  • List of Countries
  • For 7 days
  • Water Temperature
  • Satellite Maps
  • Weather Map
  • Weather Widgets
  • user-avatar
    Login

    Hourly Weather Malanje

    Today, 24 June, Monday

    Time Temperature Precipitation Wind Pressure Humidity
    00:00 +16°C° 0 mm 1 mps 666 mmHg 61%
    01:00 +14°C° 0 mm 0 mps 665 mmHg 64%
    02:00 +14°C° 0 mm 0 mps 665 mmHg 66%
    03:00 +13°C° 0 mm 0 mps 665 mmHg 67%
    04:00 +13°C° 0 mm 0 mps 664 mmHg 69%
    05:00 +14°C° 0 mm 0 mps 665 mmHg 67%
    06:00 +14°C° 0 mm 0 mps 666 mmHg 65%
    07:00 +16°C° 0 mm 0 mps 667 mmHg 62%
    08:00 +21°C° 0 mm 1 mps 667 mmHg 51%
    09:00 +25°C° 0 mm 1 mps 668 mmHg 39%
    10:00 +28°C° 0 mm 1 mps 669 mmHg 28%
    11:00 +30°C° 0 mm 1 mps 668 mmHg 24%
    12:00 +31°C° 0 mm 1 mps 668 mmHg 21%
    13:00 +33°C° 0 mm 1 mps 668 mmHg 18%
    14:00 +32°C° 0 mm 1 mps 667 mmHg 17%
    15:00 +32°C° 0 mm 1 mps 666 mmHg 17%
    16:00 +31°C° 0 mm 1 mps 666 mmHg 17%
    17:00 +28°C° 0 mm 1 mps 665 mmHg 21%
    18:00 +25°C° 0 mm 1 mps 665 mmHg 26%
    19:00 +22°C° 0 mm 1 mps 665 mmHg 30%
    20:00 +21°C° 0 mm 1 mps 665 mmHg 36%
    21:00 +20°C° 0 mm 1 mps 665 mmHg 41%
    22:00 +19°C° 0 mm 1 mps 665 mmHg 47%
    23:00 +18°C° 0 mm 1 mps 665 mmHg 52%

    Tomorrow, 25 June, Tuesday

    Time Temperature Precipitation Wind Pressure Humidity
    00:00 +16°C° 0 mm 1 mps 665 mmHg 57%
    01:00 +14°C° 0 mm 0 mps 664 mmHg 62%
    02:00 +15°C° 0 mm 1 mps 664 mmHg 64%
    03:00 +15°C° 0 mm 1 mps 664 mmHg 65%
    04:00 +14°C° 0 mm 1 mps 664 mmHg 67%
    05:00 +15°C° 0 mm 1 mps 665 mmHg 66%
    06:00 +15°C° 0 mm 1 mps 665 mmHg 65%
    07:00 +15°C° 0 mm 1 mps 666 mmHg 64%
    08:00 +20°C° 0 mm 1 mps 666 mmHg 52%
    09:00 +24°C° 0 mm 1 mps 667 mmHg 40%
    10:00 +28°C° 0 mm 2 mps 668 mmHg 28%
    11:00 +30°C° 0 mm 1 mps 668 mmHg 24%
    12:00 +32°C° 0 mm 1 mps 668 mmHg 21%
    13:00 +34°C° 0 mm 1 mps 667 mmHg 17%
    14:00 +33°C° 0 mm 1 mps 667 mmHg 17%
    15:00 +32°C° 0 mm 1 mps 666 mmHg 17%
    16:00 +32°C° 0 mm 1 mps 665 mmHg 17%
    17:00 +29°C° 0 mm 1 mps 665 mmHg 21%
    18:00 +26°C° 0 mm 1 mps 665 mmHg 25%
    19:00 +23°C° 0 mm 1 mps 665 mmHg 30%
    20:00 +21°C° 0 mm 1 mps 665 mmHg 37%
    21:00 +20°C° 0 mm 1 mps 665 mmHg 44%
    22:00 +18°C° 0 mm 2 mps 665 mmHg 52%
    23:00 +17°C° 0 mm 2 mps 665 mmHg 57%

    Day after tomorrow, 26 June, Wednesday

    Time Temperature Precipitation Wind Pressure Humidity
    00:00 +16°C° 0 mm 2 mps 665 mmHg 62%
    01:00 +16°C° 0 mm 2 mps 665 mmHg 67%
    02:00 +15°C° 0 mm 1 mps 664 mmHg 71%
    03:00 +14°C° 0 mm 1 mps 664 mmHg 75%
    04:00 +14°C° 0 mm 1 mps 664 mmHg 79%
    05:00 +14°C° 0 mm 1 mps 665 mmHg 78%
    06:00 +14°C° 0 mm 1 mps 665 mmHg 78%
    07:00 +15°C° 0 mm 1 mps 666 mmHg 78%
    08:00 +19°C° 0 mm 1 mps 667 mmHg 64%
    09:00 +23°C° 0 mm 2 mps 667 mmHg 49%
    10:00 +27°C° 0 mm 2 mps 668 mmHg 35%
    11:00 +30°C° 0 mm 1 mps 668 mmHg 29%
    12:00 +33°C° 0 mm 1 mps 668 mmHg 24%
    13:00 +34°C° 0 mm 0 mps 669 mmHg 18%
    14:00 +33°C° 0 mm 0 mps 668 mmHg 18%
    15:00 +31°C° 0 mm 0 mps 667 mmHg 19%
    16:00 +30°C° 0 mm 0 mps 666 mmHg 19%
    17:00 +29°C° 0 mm 1 mps 666 mmHg 24%
    18:00 +26°C° 0 mm 1 mps 666 mmHg 29%
    19:00 +23°C° 0 mm 2 mps 666 mmHg 34%
    20:00 +20°C° 0 mm 2 mps 666 mmHg 44%
    21:00 +19°C° 0 mm 1 mps 666 mmHg 54%
    22:00 +18°C° 0 mm 1 mps 666 mmHg 64%
    23:00 +16°C° 0 mm 1 mps 665 mmHg 66%

    27 June, Thursday

    Time Temperature Precipitation Wind Pressure Humidity
    00:00 +16°C° 0 mm 2 mps 665 mmHg 69%
    01:00 +15°C° 0 mm 2 mps 665 mmHg 72%
    02:00 +15°C° 0 mm 2 mps 665 mmHg 75%
    03:00 +14°C° 0 mm 2 mps 664 mmHg 77%
    04:00 +14°C° 0 mm 1 mps 664 mmHg 80%
    05:00 +14°C° 0 mm 1 mps 665 mmHg 79%
    06:00 +14°C° 0 mm 1 mps 665 mmHg 77%
    07:00 +15°C° 0 mm 1 mps 666 mmHg 76%
    08:00 +20°C° 0 mm 1 mps 667 mmHg 61%
    09:00 +24°C° 0 mm 1 mps 668 mmHg 46%
    10:00 +28°C° 0 mm 1 mps 669 mmHg 31%
    11:00 +31°C° 0 mm 1 mps 669 mmHg 27%
    12:00 +33°C° 0 mm 1 mps 668 mmHg 22%
    13:00 +35°C° 0 mm 1 mps 668 mmHg 18%
    14:00 +32°C° 0 mm 0 mps 668 mmHg 18%
    15:00 +31°C° 0 mm 0 mps 667 mmHg 18%
    16:00 +31°C° 0 mm 0 mps 666 mmHg 18%
    17:00 +27°C° 0 mm 0 mps 666 mmHg 22%
    18:00 +24°C° 0 mm 0 mps 666 mmHg 27%
    19:00 +23°C° 0 mm 1 mps 665 mmHg 31%
    20:00 +22°C° 0 mm 1 mps 665 mmHg 38%
    21:00 +20°C° 0 mm 1 mps 665 mmHg 45%
    22:00 +18°C° 0 mm 2 mps 665 mmHg 52%
    23:00 +17°C° 0 mm 2 mps 665 mmHg 58%

    28 June, Friday

    Time Temperature Precipitation Wind Pressure Humidity
    00:00 +16°C° 0 mm 1 mps 665 mmHg 63%
    01:00 +15°C° 0 mm 1 mps 665 mmHg 69%
    02:00 +15°C° 0 mm 1 mps 665 mmHg 75%
    03:00 +14°C° 0 mm 1 mps 664 mmHg 80%
    04:00 +13°C° 0 mm 1 mps 664 mmHg 85%
    05:00 +14°C° 0 mm 1 mps 665 mmHg 83%
    06:00 +13°C° 0 mm 0 mps 665 mmHg 81%
    07:00 +14°C° 0 mm 0 mps 666 mmHg 79%
    08:00 +20°C° 0 mm 1 mps 667 mmHg 63%
    09:00 +24°C° 0 mm 2 mps 667 mmHg 48%
    10:00 +28°C° 0 mm 2 mps 668 mmHg 32%
    11:00 +29°C° 0 mm 2 mps 668 mmHg 27%
    12:00 +31°C° 0 mm 3 mps 668 mmHg 22%
    13:00 +34°C° 0 mm 3 mps 667 mmHg 17%
    14:00 +34°C° 0 mm 3 mps 667 mmHg 17%
    15:00 +33°C° 0 mm 3 mps 666 mmHg 18%
    16:00 +33°C° 0 mm 3 mps 666 mmHg 18%
    17:00 +29°C° 0 mm 2 mps 666 mmHg 22%
    18:00 +26°C° 0 mm 2 mps 665 mmHg 26%
    19:00 +24°C° 0 mm 1 mps 665 mmHg 30%
    20:00 +22°C° 0 mm 1 mps 665 mmHg 36%
    21:00 +20°C° 0 mm 2 mps 665 mmHg 43%
    22:00 +19°C° 0 mm 2 mps 665 mmHg 49%
    23:00 +19°C° 0 mm 1 mps 665 mmHg 59%

    29 June, Saturday

    Time Temperature Precipitation Wind Pressure Humidity
    00:00 +18°C° 0 mm 1 mps 665 mmHg 69%
    01:00 +15°C° 0 mm 1 mps 665 mmHg 79%
    02:00 +15°C° 0 mm 1 mps 665 mmHg 82%
    03:00 +15°C° 0 mm 1 mps 665 mmHg 85%
    04:00 +14°C° 0 mm 1 mps 665 mmHg 88%
    05:00 +15°C° 0 mm 1 mps 665 mmHg 86%
    06:00 +15°C° 0 mm 1 mps 666 mmHg 83%
    07:00 +15°C° 0 mm 1 mps 666 mmHg 80%
    08:00 +20°C° 0 mm 1 mps 667 mmHg 63%
    09:00 +24°C° 0 mm 2 mps 668 mmHg 45%
    10:00 +28°C° 0 mm 2 mps 669 mmHg 28%
    11:00 +30°C° 0 mm 2 mps 669 mmHg 24%
    12:00 +31°C° 0 mm 2 mps 668 mmHg 21%
    13:00 +34°C° 0 mm 2 mps 668 mmHg 17%
    14:00 +34°C° 0 mm 2 mps 667 mmHg 18%
    15:00 +32°C° 0 mm 2 mps 667 mmHg 18%
    16:00 +32°C° 0 mm 2 mps 666 mmHg 18%
    17:00 +29°C° 0 mm 2 mps 666 mmHg 22%
    18:00 +26°C° 0 mm 1 mps 666 mmHg 27%
    19:00 +23°C° 0 mm 1 mps 665 mmHg 31%
    20:00 +22°C° 0 mm 1 mps 666 mmHg 35%
    21:00 +21°C° 0 mm 1 mps 666 mmHg 40%
    22:00 +20°C° 0 mm 1 mps 666 mmHg 44%
    23:00 +19°C° 0 mm 1 mps 666 mmHg 53%
    Show more